Location: Borea
(45.6167°N, 23.0167°E)
Time: 05:59:04
(UTC+00:00)

Cosmos 2228 - Pass Details

Date: 03 February 2023
Orbit: 585 x 612 km, 82.5° (Epoch: 29 March)

Event Time Altitude Azimuth Distance (km) Brightness Sun altitude
Rises 16:51:56 0° 345° (NNW) 2,825 6.5 -13.4°
Reaches altitude 10° 16:54:12 10° 339° (NNW) 1,918 5.7 -13.8°
Maximum altitude 16:58:14 46° 267° (W) 797 4.1 -14.5°
Drops below altitude 10° 17:02:15 10° 194° (SSW) 1,905 5.8 -15.2°
Sets 17:04:30 0° 188° (S) 2,802 6.6 -15.6°
